Karlovy Vary, Czech Republic

7:30 PM CET on March 25, 2017 (GMT +0100)
Karlovy Vary

Weather History for LKKV - February, 2013

Change the Weather History Date:

Saturday, February 16, 2013

  Actual Average (EDQM) Record (EDQM)
Temperature  
Mean Temperature 30 °F -  
Max Temperature 33 °F 34 °F 53 °F (2001)
Min Temperature 26 °F 26 °F 17 °F (2003)
Degree Days  
Heating Degree Days 36    
Moisture  
Dew Point 28 °F    
Average Humidity 91    
Maximum Humidity 100    
Minimum Humidity 80    
Precipitation  
Precipitation 0.00 in - - ()
Sea Level Pressure  
Sea Level Pressure 30.12 in    
Wind  
Wind Speed 3 mph ()    
Max Wind Speed 5 mph    
Max Gust Speed -    
Visibility 2.5 miles    
Events Rain , Snow    
Averages and records for this station are not official NWS values.
T = Trace of Precipitation, MM = Missing Value Source: Averaged Metar Reports

Daily Weather History Graph

Daily Weather History Graph

Search for Another Location

Airport or City:

Trip Planner

Search our weather history database for the weather conditions in past years. The results will help you decide how hot, cold, wet, or windy it might be!

Date:

Astronomy

Feb. 16, 2013 Rise Set
Actual Time 7:17 AM CET 5:28 PM CET
Civil Twilight 6:43 AM CET 6:01 PM CET
Nautical Twilight 6:06 AM CET 6:39 PM CET
Astronomical Twilight 5:28 AM CET 7:17 PM CET
Moon 9:36 AM CET (2/16) No Moon Set
Length of Visible Light 11h 17m
Length of Day
10h 10m
Waxing Crescent, 37% of the Moon is Illuminated
Feb 16
Waxing Crescent
Feb 17
First Quarter
Feb 25
Full
Mar 4
Last Quarter
Mar 11
New

Hourly Weather History & Observations

Time (CET) Temp. Windchill Dew Point Humidity Pressure Visibility Wind Dir Wind Speed Gust Speed Precip Events Conditions
12:00 AM 28.4 °F 23.3 °F 23.0 °F 80% 30.09 in - SW 4.6 mph - N/A   Clear
12:16 AM 28.4 °F 24.6 °F 23.0 °F 80% 30.09 in 5.6 mi SW 3.5 mph - N/A Snow Light Snow
1:00 AM 28.4 °F 23.3 °F 24.8 °F 86% 30.09 in 5.0 mi WSW 4.6 mph - N/A Snow Light Snow
2:00 AM 26.6 °F 21.2 °F 24.8 °F 93% 30.09 in 3.7 mi WSW 4.6 mph - N/A Snow Light Snow
3:00 AM 26.6 °F 21.2 °F 24.8 °F 93% 30.09 in 3.7 mi WSW 4.6 mph - N/A   Partly Cloudy
3:14 AM 26.6 °F 21.2 °F 24.8 °F 93% 30.09 in 3.7 mi WSW 4.6 mph - N/A Snow Light Snow
4:00 AM 26.6 °F 22.6 °F 24.8 °F 93% 30.09 in 3.1 mi WSW 3.5 mph - N/A Snow Light Snow
5:00 AM 26.6 °F 21.2 °F 24.8 °F 93% 30.09 in - West 4.6 mph - N/A Snow Light Snow
6:00 AM 28.4 °F 24.6 °F 26.6 °F 93% 30.09 in 2.5 mi West 3.5 mph - N/A Snow Light Snow
7:00 AM 26.6 °F - 26.6 °F 100% 30.09 in 1.9 mi Calm Calm - N/A Snow Light Snow
7:30 AM 26.6 °F - 26.6 °F 100% 30.12 in 1.3 mi SW 2.3 mph - N/A Snow Light Snow
8:00 AM 28.4 °F - 26.6 °F 93% 30.12 in 1.2 mi WSW 2.3 mph - N/A Snow Light Snow
8:30 AM 28.4 °F - 26.6 °F 93% 30.12 in 0.9 mi Variable 1.2 mph - N/A Snow Light Snow
9:00 AM 28.4 °F - 26.6 °F 93% 30.12 in 0.8 mi West 2.3 mph - N/A Snow Light Snow
9:30 AM 30.2 °F - 28.4 °F 93% 30.12 in 0.9 mi Variable 1.2 mph - N/A Snow Light Snow
10:00 AM 30.2 °F 25.4 °F 28.4 °F 93% 30.12 in 1.2 mi West 4.6 mph - N/A Snow Light Snow
10:30 AM 30.2 °F 25.4 °F 28.4 °F 93% 30.15 in 0.9 mi West 4.6 mph - N/A Snow Light Snow
11:00 AM 30.2 °F 26.7 °F 28.4 °F 93% 30.15 in 1.2 mi West 3.5 mph - N/A Snow Light Snow
11:30 AM 32.0 °F 27.5 °F 30.2 °F 93% 30.15 in 1.2 mi WNW 4.6 mph - N/A Snow Light Snow
12:00 PM 32.0 °F 28.7 °F 30.2 °F 93% 30.15 in 1.2 mi WNW 3.5 mph - N/A Snow Light Snow
12:30 PM 32.0 °F 28.7 °F 30.2 °F 93% 30.15 in 1.2 mi WNW 3.5 mph - N/A Snow Light Snow
1:00 PM 33.8 °F 30.8 °F 30.2 °F 87% 30.12 in 1.6 mi NW 3.5 mph - N/A Snow Light Snow
1:30 PM 33.8 °F 29.6 °F 30.2 °F 87% 30.12 in 1.4 mi WNW 4.6 mph - N/A Snow Light Snow
2:00 PM 33.8 °F 29.6 °F 30.2 °F 87% 30.12 in 1.9 mi WNW 4.6 mph - N/A Snow Light Snow
2:30 PM 33.8 °F 29.6 °F 30.2 °F 87% 30.12 in 3.1 mi West 4.6 mph - N/A Rain , Snow Light Rain
3:00 PM 33.8 °F 30.8 °F 30.2 °F 87% 30.12 in 3.1 mi WNW 3.5 mph - N/A Rain , Snow Light Rain
3:30 PM 33.8 °F 30.8 °F 30.2 °F 87% 30.12 in 3.7 mi West 3.5 mph - N/A   Mostly Cloudy
4:00 PM 33.8 °F - 30.2 °F 87% 30.12 in 3.1 mi Variable 2.3 mph - N/A Rain , Snow Light Rain
4:30 PM 32.0 °F 28.7 °F 30.2 °F 93% 30.12 in 3.1 mi West 3.5 mph - N/A Snow Light Snow
5:00 PM 32.0 °F - 30.2 °F 93% 30.12 in 3.1 mi West 2.3 mph - N/A   Mostly Cloudy
5:30 PM 32.0 °F - 30.2 °F 93% 30.12 in 3.1 mi Variable 2.3 mph - N/A Snow Light Snow
6:00 PM 32.0 °F - 30.2 °F 93% 30.15 in 3.1 mi Calm Calm - N/A Snow Light Snow
6:30 PM 32.0 °F - 30.2 °F 93% 30.15 in 3.1 mi Variable 1.2 mph - N/A   Mostly Cloudy
7:00 PM 32.0 °F 28.7 °F 30.2 °F 93% 30.15 in 3.1 mi WNW 3.5 mph - N/A   Mostly Cloudy
7:30 PM 32.0 °F - 30.2 °F 93% 30.15 in 3.1 mi Variable 2.3 mph - N/A   Mostly Cloudy
8:00 PM 32.0 °F - 30.2 °F 93% 30.15 in 3.1 mi Calm Calm - N/A   Mostly Cloudy
9:00 PM 32.0 °F - 30.2 °F 93% 30.15 in 3.1 mi WNW 2.3 mph - N/A Snow Light Snow
10:00 PM 32.0 °F - 30.2 °F 93% 30.15 in 1.9 mi Calm Calm - N/A Snow Light Snow
11:00 PM 32.0 °F - 30.2 °F 93% 30.15 in 1.9 mi Calm Calm - N/A Snow Light Snow